Theta_e
321 326 327 328 329 326 325 325 323 319 314 313 312 312 314 315 315 316 319 316 312 314 315 314 314 313 314 314 313 311 309 310 311 311 311 312 313 315 316 316 317 321 322 322 322 325 327 329 331 331 331 332 332 332 332 332 332 333 333 333 333 333 333 333 334 335 335 336 336 336 335 335 335 335 334 333 332 332 332 331 330 331 332 332 332 332
320 326 327 326 327 325 323 322 319 317 315 312 310 311 312 313 314 315 315 315 313 313 314 314 313 313 313 313 312 311 311 311 310 311 310 310 311 312 314 315 315 316 317 319 320 322 325 328 330 331 331 332 332 332 332 332 333 333 333 333 334 333 333 333 333 333 334 334 335 335 335 335 335 335 334 334 333 333 333 332 331 330 331 331 331 331
321 326 326 324 324 323 321 319 317 316 315 312 310 311 312 312 314 314 313 314 313 312 315 315 312 312 313 312 311 312 312 311 310 310 310 310 310 310 311 313 314 314 315 319 320 319 322 326 328 330 331 331 332 332 332 332 333 333 333 333 333 333 334 333 333 333 333 333 334 334 335 335 335 335 335 334 333 333 333 333 332 332 332 331 329 329
323 324 322 321 321 321 320 318 316 316 316 314 311 310 312 313 314 315 314 313 313 312 315 316 314 314 313 312 312 312 312 311 311 312 311 311 311 309 309 310 312 313 314 317 320 318 319 323 326 328 330 330 331 332 332 333 333 333 333 333 333 333 334 333 333 333 333 333 333 334 334 334 334 334 334 333 333 333 333 333 333 332 331 330 330 330
321 319 319 319 320 321 320 318 317 318 321 318 311 310 311 312 313 315 314 313 313 312 312 315 315 315 315 314 314 313 312 310 311 312 313 312 311 310 310 311 311 312 313 314 318 318 315 319 324 327 329 330 330 331 332 333 333 333 333 333 334 333 334 334 334 334 333 333 333 333 334 334 334 333 333 332 331 332 332 332 333 332 332 331 331 331
318 316 318 319 319 320 320 320 319 319 320 318 314 311 309 310 312 315 315 313 314 315 314 314 315 319 324 320 315 314 313 312 311 311 312 312 311 311 311 311 310 311 312 313 315 314 312 315 321 325 327 329 330 331 331 332 333 334 334 334 334 334 334 334 334 334 333 333 333 333 333 333 333 333 332 332 331 331 331 331 331 332 332 332 331 330
316 315 317 318 319 320 321 321 319 317 318 317 316 313 310 310 312 315 316 316 319 320 315 312 316 323 326 323 318 315 314 314 313 312 313 312 310 311 311 310 310 310 311 312 312 311 310 312 317 321 325 327 329 331 331 332 332 333 334 334 334 334 334 334 334 334 333 333 333 333 333 333 333 332 332 332 331 331 331 331 331 331 331 331 330 330
315 315 317 318 319 319 321 322 318 315 316 316 315 314 312 309 312 316 316 319 322 319 313 312 316 320 319 319 316 313 312 313 313 312 313 312 311 311 310 309 310 309 310 311 312 312 308 308 313 319 323 327 329 330 331 331 332 332 333 334 334 334 334 334 334 333 333 333 333 333 333 333 333 333 332 331 331 331 331 330 330 330 330 329 330 330
314 316 317 318 319 319 320 320 317 314 314 315 314 316 314 310 312 315 316 318 319 317 316 316 315 317 322 323 316 310 311 313 313 312 312 312 311 311 310 310 310 309 309 310 312 311 307 306 311 316 321 325 328 329 330 331 332 332 332 333 333 333 334 334 333 333 333 333 333 333 333 333 333 332 332 331 331 331 330 330 329 329 329 330 330 329
314 315 316 316 318 319 319 318 316 313 313 313 315 317 318 319 318 316 316 316 314 315 319 319 314 315 323 328 318 310 311 313 314 314 311 311 311 310 310 311 309 309 311 313 312 307 305 307 310 313 318 322 325 327 329 330 331 331 332 332 332 333 333 333 333 333 333 333 333 333 333 333 333 332 332 332 331 330 330 330 330 330 330 330 329 328
314 313 314 315 317 317 317 316 315 314 312 312 315 316 319 323 321 318 321 320 315 316 318 319 316 314 319 324 318 312 314 315 314 315 312 311 311 310 310 310 310 310 311 315 315 308 304 307 309 312 317 320 323 326 327 328 329 330 331 331 332 332 332 332 332 332 333 332 333 332 333 332 332 332 332 331 330 330 330 330 330 330 329 328 327 326
312 313 315 315 315 314 314 315 314 314 313 311 314 317 318 322 318 316 320 318 315 318 318 318 315 312 316 320 316 314 317 316 313 314 314 313 312 312 311 310 310 312 314 318 322 316 309 308 309 310 314 317 320 323 325 327 328 329 330 331 331 331 332 332 332 332 332 332 332 332 332 332 332 331 331 331 330 329 329 329 328 327 326 326 326 325
313 316 317 315 314 312 313 316 316 315 315 312 314 316 317 319 317 317 318 316 317 318 313 311 313 312 314 316 315 315 315 315 313 312 315 314 313 315 314 312 312 315 319 321 323 322 317 311 308 309 311 314 317 320 323 325 326 328 329 330 331 331 331 331 331 331 331 331 332 332 332 332 332 331 331 331 330 329 329 328 327 326 325 325 324 324
315 317 317 314 314 311 312 318 318 318 317 314 314 315 316 319 319 318 318 317 320 318 311 308 312 316 316 316 317 317 315 314 312 311 312 311 311 312 312 313 316 317 319 320 320 323 322 312 306 309 310 312 314 316 318 320 322 324 325 328 329 330 331 332 332 332 331 332 332 332 332 332 332 331 331 330 330 329 328 327 327 326 325 324 323 322
317 317 315 315 315 312 312 315 318 321 319 315 314 315 317 319 322 321 319 321 321 318 313 309 313 321 322 317 315 314 314 314 313 314 313 311 312 312 312 315 318 318 317 318 320 323 318 308 307 310 310 311 312 312 313 314 316 318 320 322 324 327 329 330 331 331 332 332 332 332 332 332 332 332 331 330 329 329 327 327 326 325 324 323 322 321
316 317 315 314 313 312 313 314 316 318 319 317 316 317 316 317 323 321 318 322 322 318 316 312 317 325 320 314 314 312 313 315 317 319 318 319 318 316 319 319 318 319 319 318 321 323 315 306 308 311 310 311 311 311 311 311 311 313 315 318 321 323 326 327 329 331 331 332 331 332 331 331 331 331 330 329 327 327 326 325 325 323 322 321 320 319
317 317 314 314 312 311 314 316 315 317 318 316 314 316 315 314 321 320 313 316 317 316 317 314 316 322 315 313 317 315 314 315 316 319 322 323 321 320 324 322 319 320 320 319 321 321 314 307 308 311 311 312 312 311 312 310 310 311 313 317 320 322 324 325 328 329 330 331 330 330 330 330 330 329 329 328 326 325 324 323 323 322 320 319 318 317
319 317 314 314 314 312 313 315 316 316 317 317 317 318 315 312 317 319 316 319 316 315 321 315 313 318 315 316 320 314 313 316 315 318 321 321 322 323 323 320 320 320 318 317 317 315 309 305 308 311 312 313 313 313 312 311 311 311 312 316 320 322 324 325 327 328 328 329 329 328 328 327 328 327 327 326 325 324 323 322 321 319 318 317 317 316
319 319 315 315 316 313 312 314 316 315 313 315 317 317 315 314 316 315 315 319 316 314 322 317 311 315 316 318 321 313 313 318 314 315 319 321 322 321 320 320 320 319 317 316 316 314 308 304 308 311 312 314 314 313 313 312 312 311 312 316 319 322 324 325 326 326 326 327 327 326 326 326 326 325 325 324 324 323 322 321 318 316 316 315 314 313
319 322 318 314 315 315 313 313 316 315 312 311 313 312 313 316 318 316 315 318 316 315 321 317 311 317 320 320 322 316 316 318 313 315 320 321 322 319 318 321 321 318 317 315 314 315 308 303 307 310 312 314 314 313 313 312 311 311 312 315 319 321 322 324 325 325 324 324 324 324 324 324 324 323 323 322 322 321 319 318 316 314 313 312 310 309
315 320 320 315 313 314 315 315 318 318 313 312 314 313 313 312 314 317 316 317 319 320 323 317 315 325 326 317 317 316 315 315 312 315 318 318 318 317 317 319 319 316 316 313 312 313 307 302 305 308 308 311 312 313 313 313 313 312 313 316 318 319 321 322 322 323 323 322 323 323 322 322 321 321 321 320 320 319 316 314 313 312 310 309 307 306
314 317 321 317 314 315 315 315 319 319 316 317 316 315 315 314 315 317 315 316 317 316 320 318 318 330 328 315 312 312 314 314 312 313 315 314 314 315 315 316 316 315 314 312 311 311 305 301 303 304 305 307 309 311 312 313 313 313 314 316 317 318 319 320 320 321 321 321 321 321 320 320 320 319 319 318 316 314 312 312 311 309 307 306 305 304
318 321 323 319 316 318 317 314 314 316 318 319 317 316 318 316 315 315 315 319 317 311 314 315 315 325 328 318 313 312 314 315 312 311 311 310 310 312 314 314 313 312 312 310 309 307 302 301 303 303 304 305 307 309 311 312 313 314 314 315 316 317 317 318 319 319 319 319 318 318 318 318 317 316 316 314 312 311 310 309 307 306 305 304 303 301
317 319 322 319 317 319 320 317 313 312 315 317 316 316 316 316 318 318 320 322 319 314 315 312 312 323 331 322 315 315 316 315 313 311 310 309 309 311 314 314 313 311 310 308 307 303 300 300 301 301 302 303 305 307 309 311 312 312 313 314 314 315 315 316 316 316 317 316 316 316 315 315 314 313 312 311 310 309 308 306 304 304 303 302 299 297
314 316 319 319 318 318 320 318 315 313 313 316 318 316 314 316 319 318 316 315 315 320 319 314 316 324 327 322 317 316 316 315 314 312 310 308 310 312 313 313 312 310 310 308 307 305 302 301 300 300 301 302 303 306 307 309 310 310 311 312 312 313 313 313 314 314 314 314 314 313 312 312 312 311 310 309 308 306 305 304 303 301 300 298 296 295
316 319 317 318 319 318 318 318 317 317 314 315 318 316 313 314 314 316 317 313 314 319 317 315 321 324 322 319 315 314 315 315 315 314 310 307 309 313 313 312 311 310 310 308 307 306 305 301 299 299 300 302 303 305 305 306 308 308 308 309 310 311 311 311 312 312 312 312 311 310 310 310 309 309 308 307 305 304 303 301 300 298 296 295 294 294
321 322 315 315 317 317 318 318 317 318 316 314 317 317 316 316 313 316 319 316 318 319 315 320 325 321 317 317 314 315 318 317 316 317 313 309 310 313 312 311 310 309 308 307 306 305 304 303 300 298 300 301 302 304 304 305 305 306 306 306 307 309 310 310 310 310 310 310 309 308 308 308 307 306 305 304 303 302 300 298 296 295 294 294 293 293
320 318 314 315 316 318 323 321 316 317 316 314 316 317 319 318 315 316 316 316 322 319 315 323 326 316 314 318 318 319 320 318 318 319 317 313 313 314 313 311 311 309 307 306 305 305 305 304 302 298 299 300 301 302 303 303 304 304 305 306 306 307 308 308 308 308 307 307 307 307 306 305 304 303 303 302 300 298 297 295 294 294 293 293 292 292
316 316 315 315 315 319 322 319 316 317 315 314 315 315 317 319 317 316 315 315 319 316 312 320 324 317 313 317 318 317 315 314 313 314 315 314 314 315 313 313 312 310 309 307 306 305 305 304 302 300 299 299 299 300 300 301 302 303 304 305 305 306 306 306 306 305 305 305 305 305 304 302 301 301 300 299 297 295 295 294 293 293 293 292 292 292
314 316 316 314 314 316 318 316 315 317 316 315 315 314 315 316 316 316 314 314 315 315 313 316 319 316 313 314 315 314 313 310 308 310 313 315 317 316 315 315 314 311 309 308 306 304 304 304 302 300 299 298 298 298 299 300 300 301 302 303 303 304 304 304 304 304 303 304 303 302 301 300 300 299 297 296 295 294 293 293 293 292 292 292 291 291
312 316 314 313 314 314 315 317 316 315 316 315 315 315 314 314 315 315 314 314 314 314 313 315 317 314 313 315 314 313 313 310 309 313 315 314 316 315 314 314 313 311 309 307 306 305 304 304 302 299 298 298 298 298 299 299 300 300 301 302 302 303 302 302 302 302 302 301 301 300 299 298 297 296 295 294 294 293 292 292 292 292 291 291 290 290
314 314 311 313 317 314 314 319 317 314 314 315 315 314 313 314 314 314 314 314 314 314 314 315 315 311 313 318 316 314 314 311 312 316 313 312 315 316 318 317 313 311 310 308 307 306 305 305 303 300 299 298 298 298 299 300 300 300 301 301 301 301 301 301 301 300 299 299 298 297 297 296 295 294 294 293 293 292 292 291 291 291 291 290 290 289
318 316 314 316 318 315 314 317 317 314 314 314 314 313 312 313 313 313 314 314 313 314 314 314 313 313 316 320 316 314 314 313 315 316 312 313 316 315 317 318 315 311 310 309 308 306 305 305 303 301 300 299 299 299 300 301 300 300 300 300 300 299 299 299 299 298 297 296 296 295 295 295 294 293 293 292 292 291 291 291 291 291 290 290 289 289
318 318 318 317 317 317 314 314 317 317 315 315 316 315 313 312 312 313 313 313 312 312 312 312 313 316 318 317 314 313 314 314 313 312 311 313 318 317 317 315 312 311 310 309 308 307 305 303 302 301 301 300 299 300 300 301 300 300 300 299 299 299 298 297 297 296 295 295 294 294 294 293 293 293 292 291 291 291 291 291 290 290 289 289 289 289
317 317 319 319 319 318 314 315 317 316 314 316 318 317 312 311 312 312 312 312 311 311 312 311 313 315 316 315 313 312 313 313 313 313 313 313 316 320 321 317 312 310 311 310 309 307 305 302 302 301 301 300 300 300 299 299 300 299 299 298 298 297 297 296 295 294 294 294 293 293 293 293 292 292 291 290 290 290 290 290 290 289 289 289 288 288
315 317 318 318 318 317 315 316 317 316 315 318 317 314 312 312 313 312 312 312 311 311 312 311 310 312 313 313 312 313 315 314 314 316 317 314 314 315 318 318 314 312 312 311 309 307 304 303 303 302 302 301 300 299 299 299 299 298 297 297 296 295 295 294 294 293 293 293 292 292 292 292 291 291 290 290 290 290 289 289 289 289 288 288 288 288
314 317 317 315 316 318 318 316 316 316 315 316 317 314 313 316 315 313 313 313 311 310 311 310 310 310 311 312 312 314 315 313 314 316 316 315 314 312 312 313 313 312 310 308 306 306 305 304 304 303 302 301 300 299 299 298 297 297 296 295 294 294 294 293 293 292 292 291 292 291 291 291 291 290 290 290 289 289 289 289 289 288 288 288 287 287
312 316 316 314 316 320 321 316 316 316 314 314 317 317 316 317 316 313 314 314 314 312 311 310 311 311 310 312 314 314 312 311 314 315 313 314 315 312 310 309 306 305 306 306 305 306 306 305 304 303 302 301 299 298 298 297 297 296 295 294 294 293 292 292 291 291 291 291 291 291 290 290 291 290 290 289 289 289 288 288 288 287 287 287 287 287
314 317 316 316 316 318 318 316 315 315 314 317 320 319 318 317 315 315 315 314 315 316 313 310 310 312 312 312 314 314 312 313 314 311 311 315 315 311 310 309 305 301 303 306 306 305 306 305 304 303 301 300 299 298 297 297 296 296 294 293 292 292 291 291 291 291 290 290 290 290 290 290 290 290 290 289 289 288 288 288 287 287 287 287 287 286
315 315 314 316 317 316 315 315 316 314 314 320 321 317 315 314 314 319 318 314 317 319 316 312 311 312 313 313 313 312 312 313 313 312 317 320 316 309 307 308 305 301 301 304 305 305 306 304 303 301 300 300 299 298 297 297 296 295 294 292 291 291 290 291 291 290 290 290 289 289 289 289 290 290 289 289 288 288 288 287 287 287 286 286 286 286
315 315 315 315 316 316 315 315 316 315 316 323 321 313 313 314 315 317 314 313 320 320 314 313 314 313 312 312 312 310 310 314 317 318 320 319 316 311 303 298 299 299 300 303 304 304 304 303 302 302 301 300 299 297 296 296 295 294 293 291 291 291 291 291 291 290 290 289 289 289 289 289 289 289 289 288 288 287 287 287 286 286 286 286 285 285
315 316 317 316 315 317 316 315 316 316 317 321 315 309 312 314 315 317 316 316 323 323 315 313 314 312 311 312 311 309 311 320 322 321 320 318 318 316 305 296 296 298 298 300 302 302 302 301 300 300 299 298 298 297 296 296 294 293 292 291 291 291 290 290 290 289 289 288 288 288 288 288 288 288 288 287 287 287 286 286 286 286 285 285 285 284
313 314 315 314 315 318 317 314 316 316 314 315 312 309 311 314 319 327 324 315 317 322 319 315 314 313 313 315 314 311 313 319 320 321 321 316 312 310 303 297 298 298 295 297 299 299 299 299 297 297 297 296 297 296 295 295 294 293 292 291 290 290 290 290 289 288 288 287 287 287 288 288 288 287 287 287 287 287 286 285 285 285 285 284 284 284
312 313 315 314 314 317 316 314 315 315 312 311 313 313 311 314 325 335 327 316 317 319 317 320 321 316 314 319 318 313 313 317 318 321 323 318 311 308 302 295 293 293 293 295 297 297 297 297 296 296 295 295 295 295 294 294 294 292 291 290 290 289 289 288 288 287 286 286 287 287 287 287 287 286 286 286 286 286 286 285 285 284 284 283 283 283
312 313 314 314 314 316 315 313 315 316 312 309 314 319 315 315 321 324 320 319 325 321 315 320 326 320 312 315 315 312 313 315 316 320 322 320 314 308 301 294 291 291 293 294 294 295 296 296 295 294 293 293 294 294 293 294 293 292 290 290 289 289 288 287 286 286 286 286 286 286 286 286 285 285 285 285 285 286 286 285 284 284 283 283 283 283
313 314 315 316 314 313 313 313 314 314 312 309 312 316 317 316 317 317 315 315 322 323 318 319 326 325 314 310 313 316 316 314 316 317 315 314 310 301 295 292 290 290 292 292 293 294 295 294 294 293 292 292 292 293 293 293 293 292 290 289 289 288 288 287 286 286 286 285 285 285 285 285 284 284 284 284 284 285 285 285 284 283 283 282 282 282
312 313 314 316 315 312 313 315 314 313 312 312 313 311 311 312 313 315 318 317 317 320 318 314 315 315 310 308 313 318 314 310 314 316 310 307 306 299 295 293 290 289 291 292 292 293 293 293 292 291 290 291 291 291 292 291 291 291 290 289 288 287 287 287 286 285 285 284 284 284 284 284 284 284 284 284 284 284 284 284 283 283 283 282 282 282
312 310 313 316 315 312 311 311 311 311 311 311 313 313 314 316 315 312 311 310 309 310 308 305 305 307 306 307 309 312 310 307 309 312 308 304 301 297 294 291 287 287 289 290 291 292 292 291 290 289 289 289 289 290 290 290 290 290 289 289 288 287 287 286 285 284 284 284 284 283 283 284 284 284 284 283 283 283 283 283 282 282 282 282 282 283
309 310 313 315 313 311 310 307 308 311 311 310 313 318 317 316 314 310 305 303 306 309 307 304 302 302 305 306 305 308 312 309 304 304 304 301 298 295 292 288 287 287 288 288 289 291 291 290 289 289 288 288 288 289 289 289 289 289 289 288 288 287 286 285 284 283 283 283 283 283 282 282 283 283 283 283 282 282 282 282 281 281 281 281 281 282
309 311 312 312 312 312 311 310 310 314 314 311 313 317 314 307 307 310 308 307 308 309 309 309 306 301 300 300 299 304 313 310 301 299 301 300 296 293 289 286 286 287 286 287 288 288 289 289 289 288 288 287 287 288 288 288 287 287 287 287 287 286 285 284 283 282 282 281 282 282 282 282 282 282 282 282 282 281 280 280 279 279 280 280 280 280
311 313 310 311 312 312 311 311 311 312 315 312 310 313 310 304 305 311 312 310 309 307 306 310 311 307 304 300 293 296 308 310 300 298 302 299 292 289 288 287 287 286 285 286 287 286 287 287 287 287 287 287 287 287 286 286 286 286 286 286 286 285 285 284 282 281 281 281 281 281 282 282 282 282 281 281 281 281 280 278 277 277 277 279 279 279
Wind_Speed
2 4 6 10 12 13 13 12 9 2 1 3 1 3 5 5 6 5 5 5 2 5 7 9 9 11 13 12 6 3 4 4 8 8 8 7 7 7 8 9 10 11 13 15 18 21 24 28 30 31 31 31 31 32 33 34 35 36 36 35 36 36 35 35 34 34 33 32 31 30 31 30 28 27 26 24 23 23 22 21 19 18 19 19 19 18
1 7 11 11 8 8 9 9 10 7 5 4 2 4 6 5 6 6 4 4 1 4 6 6 8 11 13 11 4 5 6 8 11 12 11 10 9 8 9 11 11 10 9 8 12 18 22 26 29 30 30 30 31 32 34 34 36 36 36 37 36 36 36 36 35 34 34 34 33 32 31 30 28 27 27 26 24 23 22 21 19 17 17 18 19 18
4 8 7 5 7 8 9 10 12 11 7 5 4 4 5 3 4 6 3 3 2 3 4 4 6 10 13 10 4 6 7 9 10 10 10 10 9 9 10 11 11 10 9 8 10 14 21 25 28 29 30 32 33 34 35 36 36 35 36 37 37 37 37 37 36 35 35 35 34 32 30 28 27 26 26 25 24 23 22 21 20 18 18 18 18 16
6 5 4 8 9 11 10 10 12 8 5 5 4 4 6 3 1 4 3 1 1 1 1 4 4 7 10 8 5 7 8 7 6 7 8 8 9 11 10 9 10 11 11 10 9 11 17 22 24 28 30 32 32 32 34 35 35 35 36 38 38 38 38 37 37 36 35 34 33 31 29 26 25 24 24 23 23 23 22 21 20 19 18 18 17 16
3 1 4 8 9 12 12 11 12 8 6 7 8 7 7 6 5 4 4 1 1 2 1 4 1 6 7 7 7 7 6 6 5 7 8 9 10 9 7 8 9 10 11 11 10 10 13 19 23 28 30 30 32 33 35 36 36 37 37 38 38 38 38 37 37 36 35 34 32 30 27 24 23 23 22 21 21 21 21 21 20 19 18 17 16 15
2 1 6 9 8 10 11 11 11 10 6 7 10 10 9 9 8 6 4 1 2 3 3 4 3 6 5 6 9 6 4 6 6 7 10 11 9 8 8 11 10 9 10 10 10 9 12 17 22 25 28 30 32 35 36 36 37 37 38 37 37 37 37 37 37 36 35 34 33 30 28 25 23 22 22 22 21 20 20 20 19 19 18 16 14 13
2 4 7 10 9 9 9 9 12 12 7 6 7 9 11 10 8 6 5 4 4 5 4 2 5 6 6 5 9 7 7 10 7 6 10 11 8 8 10 11 10 9 10 9 9 9 11 16 19 22 27 31 33 35 36 36 36 37 37 37 36 37 36 36 36 36 35 35 34 33 31 29 26 24 24 23 22 20 19 18 17 16 16 15 14 14
5 6 6 9 10 9 9 9 12 13 9 5 3 5 9 10 10 8 5 5 4 2 3 1 4 4 5 6 6 3 5 10 9 8 10 10 10 10 12 12 11 11 10 9 10 10 11 16 20 23 28 32 34 35 35 34 36 36 36 36 36 36 36 35 35 35 35 35 34 33 31 30 28 27 25 23 21 19 17 16 14 14 14 14 14 14
6 9 9 10 9 9 9 7 10 13 8 4 0 2 5 7 9 7 6 6 3 0 4 3 3 3 6 6 4 1 5 9 10 11 12 13 13 13 13 12 11 11 10 9 9 10 12 18 23 26 28 31 33 33 33 34 35 35 35 34 34 34 35 34 34 34 34 34 34 33 31 29 28 26 24 22 20 18 16 15 14 13 14 13 12 11
3 8 11 11 9 8 6 6 10 14 8 4 1 2 2 3 1 1 4 4 1 3 8 7 6 5 5 5 3 1 4 7 8 9 11 13 14 13 13 13 11 9 8 8 8 9 14 18 21 22 23 25 28 29 30 31 31 32 33 33 33 33 34 33 33 33 33 33 32 32 31 29 27 24 22 21 19 17 15 14 14 13 13 12 11 11
1 3 8 8 6 5 6 6 9 10 5 1 2 3 5 4 4 3 0 2 2 6 9 8 9 7 6 5 5 5 5 8 8 7 9 10 11 11 11 11 10 8 8 7 7 9 13 15 15 16 18 20 23 25 26 27 28 30 31 32 32 33 32 32 32 32 31 31 31 31 30 28 26 24 22 21 19 17 15 15 14 14 14 12 11 12
2 3 4 4 3 5 6 6 7 4 2 1 0 2 3 3 2 3 2 1 5 8 7 5 6 7 7 5 4 7 6 7 8 8 10 10 9 9 9 9 8 8 8 7 7 7 8 9 11 14 17 18 20 23 24 25 26 28 29 30 31 32 32 31 31 31 30 30 30 30 29 28 26 24 23 22 20 18 17 16 16 16 15 13 12 12
1 2 3 3 3 6 7 6 5 3 3 3 3 4 3 1 1 2 2 3 6 6 3 1 3 4 7 7 6 8 8 8 9 8 9 9 8 8 8 8 7 6 7 7 7 6 6 7 11 15 18 19 21 23 24 25 25 26 27 28 29 31 31 30 30 30 30 30 30 29 28 27 26 24 24 23 21 20 19 18 17 17 15 13 13 13
2 3 3 5 2 5 10 9 7 7 7 8 7 6 6 5 5 6 5 2 4 4 3 1 2 3 4 5 9 11 10 8 8 8 8 7 8 9 8 6 6 5 6 6 6 6 6 7 11 15 17 19 20 22 23 24 24 24 25 26 27 28 28 28 29 29 29 29 29 28 28 27 26 25 24 23 22 21 20 19 18 16 15 14 13 12
6 3 6 9 4 6 10 9 7 6 5 7 6 4 5 4 5 6 4 4 4 3 3 2 2 4 3 4 8 10 7 5 5 6 7 7 8 7 6 5 5 5 5 4 4 5 6 8 11 13 14 16 17 19 20 21 22 23 23 24 25 25 25 26 27 27 28 28 27 27 27 26 26 25 24 23 22 22 21 19 17 16 14 14 13 12
6 3 2 3 4 10 10 4 4 5 3 4 4 4 6 5 4 2 3 5 4 1 1 2 3 4 4 5 6 3 5 6 5 5 5 6 7 4 5 5 5 5 5 4 5 5 5 7 9 11 12 14 15 16 18 20 21 21 22 22 23 24 23 24 24 25 26 26 26 26 25 25 25 24 24 23 22 21 20 18 17 16 14 13 13 12
5 2 1 3 2 7 9 6 4 4 4 3 4 6 5 2 5 2 2 1 3 2 3 2 3 5 3 6 6 4 4 6 6 6 5 6 5 3 5 5 5 5 5 4 4 4 5 6 8 10 11 12 13 15 17 18 19 20 21 21 21 21 21 22 23 24 24 25 24 24 24 23 24 23 23 24 23 21 18 17 15 15 14 13 12 11
5 1 1 4 4 3 3 6 3 2 3 4 5 7 1 2 2 2 2 1 2 3 4 1 4 4 2 4 5 4 3 8 8 7 6 6 5 5 6 5 5 5 4 4 3 3 4 6 8 9 10 11 12 14 16 17 18 18 19 20 21 21 22 22 22 23 23 24 24 24 24 23 23 24 24 23 22 21 19 17 16 15 14 13 12 11
5 3 3 2 6 3 3 5 3 3 2 3 3 3 3 3 4 2 3 2 1 4 4 2 3 3 5 5 3 3 7 9 9 7 6 7 7 7 6 6 6 5 3 4 4 3 4 6 8 10 10 10 11 12 14 15 16 17 18 18 20 22 22 23 23 23 24 25 25 25 24 24 23 23 23 22 21 20 19 18 16 16 15 13 12 11
4 4 1 2 2 3 2 2 6 4 2 1 1 2 2 3 4 3 3 2 3 4 2 3 3 3 6 6 5 7 10 10 9 6 7 9 9 7 7 7 6 5 5 4 5 4 4 7 9 11 11 11 12 12 13 14 15 16 18 19 21 22 23 24 24 25 25 25 25 25 24 23 23 22 22 21 20 19 18 17 17 16 14 13 13 12
4 3 2 1 1 2 2 3 6 6 4 3 3 4 4 4 2 2 1 2 3 3 3 2 2 5 6 5 8 11 10 9 8 7 8 9 8 8 8 7 6 5 5 5 5 4 5 7 9 10 10 11 13 14 14 15 16 17 18 20 22 23 23 24 24 25 25 25 24 24 24 23 22 22 21 20 19 18 18 18 17 16 15 15 14 14
3 3 4 3 2 4 3 1 4 6 6 5 5 5 5 5 3 3 4 2 2 2 4 4 2 7 6 4 9 11 6 4 5 6 7 8 8 8 7 7 6 6 6 5 5 5 5 7 9 9 9 10 12 14 15 16 17 19 20 21 22 23 24 24 24 24 24 24 24 23 23 23 22 22 21 21 20 20 20 19 17 17 17 18 17 17
2 4 4 2 4 5 3 1 2 3 3 3 4 4 4 4 5 6 7 3 1 1 1 3 1 6 6 4 6 7 4 3 5 5 6 7 7 7 6 6 6 5 6 5 5 5 5 8 8 9 9 10 12 13 15 16 18 20 21 21 22 23 23 24 24 24 24 23 23 23 23 23 23 23 22 22 22 21 20 19 19 19 19 20 20 19
2 4 4 1 1 2 3 2 2 2 2 2 4 3 4 4 3 5 5 3 3 2 2 2 3 6 6 4 4 6 5 5 6 5 7 7 5 6 7 6 6 6 5 5 4 4 5 7 8 9 10 10 11 13 14 16 17 19 21 22 23 23 23 23 24 23 24 24 24 24 25 25 25 24 24 23 22 22 22 22 22 21 21 22 21 20
4 4 4 4 2 1 2 3 4 4 3 3 3 2 3 3 4 2 2 2 3 4 5 5 5 6 6 5 3 4 5 6 7 6 6 7 5 5 5 5 5 5 5 5 5 4 5 6 7 9 10 11 13 14 15 16 17 19 20 22 23 24 23 23 24 24 25 26 27 27 26 26 26 25 24 24 24 24 25 24 24 23 22 22 21 20
5 5 5 7 7 8 9 8 7 5 2 1 2 1 3 4 5 3 2 3 5 4 4 5 5 6 6 6 5 6 5 6 7 5 4 6 5 5 5 5 5 5 6 7 6 6 6 6 7 10 12 13 15 16 17 17 18 19 20 21 22 24 25 25 25 26 27 28 28 28 27 27 26 25 26 26 27 27 27 26 25 24 23 22 21 21
3 4 7 10 10 9 8 4 4 7 5 7 6 5 5 6 6 4 2 4 5 2 2 5 5 4 7 7 7 7 5 6 7 5 4 5 4 4 5 5 5 5 6 6 6 6 6 6 7 10 14 16 17 18 19 19 20 20 20 21 22 24 26 26 26 27 27 28 28 28 28 27 27 27 28 29 29 29 28 27 26 25 24 22 22 21
4 5 9 11 9 7 6 4 7 10 10 12 10 8 8 7 7 7 8 9 5 4 7 7 5 5 8 8 8 8 7 6 6 6 6 4 4 4 5 5 5 6 5 6 7 7 8 7 7 10 14 17 18 19 19 20 20 21 21 22 23 25 26 26 27 27 28 28 28 29 28 28 29 30 31 31 31 30 29 28 27 26 25 23 22 21
5 6 8 9 8 7 6 7 11 12 11 12 12 12 10 8 9 12 14 12 8 7 11 7 8 10 8 7 11 9 6 5 5 6 4 3 4 4 5 6 7 7 7 8 8 8 9 9 8 11 15 17 18 19 19 20 21 22 23 24 25 26 27 27 28 28 29 29 30 30 30 31 32 32 32 32 31 31 29 28 27 26 25 24 22 21
4 4 5 8 7 6 5 6 8 9 10 11 14 16 15 14 15 16 16 14 11 13 13 6 9 12 8 8 11 8 3 3 3 2 2 4 5 6 7 7 8 9 9 10 10 9 9 9 9 12 15 17 18 20 21 21 23 24 25 26 27 28 28 29 29 30 31 31 31 32 33 33 34 34 33 32 32 31 30 28 27 26 25 24 22 21
2 3 3 7 6 4 3 3 5 7 8 9 13 18 20 20 20 18 16 12 10 13 11 7 11 13 7 6 8 6 3 3 3 2 4 5 5 7 7 8 9 10 10 10 10 9 9 9 10 13 16 19 21 22 23 24 25 26 27 28 30 30 30 30 31 31 32 33 33 34 35 35 35 34 33 32 31 30 30 28 27 26 25 23 22 20
3 2 2 5 5 5 2 4 5 4 2 7 14 17 19 19 18 16 14 12 12 13 10 9 12 10 5 4 6 7 5 4 6 6 5 5 6 8 9 10 11 11 11 10 10 10 11 11 12 14 19 22 24 26 27 28 28 28 30 31 32 32 32 31 32 32 33 33 34 35 35 35 35 34 33 32 31 30 29 28 27 25 24 23 22 20
6 5 3 5 6 3 1 4 5 5 1 10 14 14 16 15 13 13 12 14 16 13 10 12 11 5 4 6 9 9 6 7 9 8 5 6 7 8 10 11 12 12 11 10 11 12 13 14 16 20 24 26 28 31 32 32 33 33 33 33 32 32 32 32 32 33 33 34 35 35 36 36 35 35 33 32 32 30 29 28 26 25 23 22 21 19
7 8 4 5 5 2 2 5 7 4 5 9 6 11 17 17 15 16 15 15 16 13 11 11 7 4 7 10 12 10 8 9 9 6 6 6 7 8 10 11 11 11 9 10 12 13 13 15 19 22 24 27 29 31 32 33 33 32 32 32 33 33 34 33 33 33 33 34 35 35 36 35 35 35 33 32 31 30 29 28 26 25 23 22 20 18
10 8 5 3 3 3 3 6 5 7 9 5 1 5 14 17 17 18 18 17 17 16 15 13 9 7 9 11 9 7 8 7 5 4 5 7 8 9 10 11 11 10 9 10 12 12 13 15 18 21 25 28 30 31 32 32 32 31 31 33 34 35 35 34 33 33 34 35 35 35 36 35 35 35 33 32 31 30 29 27 26 25 23 21 20 18
11 8 4 2 2 3 3 6 8 7 5 3 3 1 3 5 6 8 12 15 16 15 14 16 15 12 10 8 4 2 4 4 5 5 8 9 9 9 10 11 11 11 11 13 14 16 19 24 27 29 31 31 31 32 33 33 33 31 32 33 33 34 34 33 34 34 36 37 37 36 37 36 35 35 34 33 31 30 28 27 26 25 23 22 20 17
11 8 5 3 2 4 4 5 5 6 9 8 6 3 3 5 7 8 9 13 15 14 14 14 14 13 11 8 3 1 0 2 5 7 9 9 10 11 12 11 11 11 12 14 16 18 23 27 29 28 28 28 31 33 33 33 33 32 32 32 32 33 33 33 34 35 37 37 37 37 37 36 36 35 34 33 31 30 28 27 26 25 23 22 20 17
9 8 8 6 2 4 4 2 3 6 11 8 5 5 6 8 10 11 8 9 11 12 13 13 14 15 12 8 6 4 2 1 4 9 9 9 10 11 11 11 10 11 11 12 14 16 18 22 24 23 25 27 30 31 32 33 33 33 32 32 33 33 33 33 34 35 36 37 37 37 37 36 36 35 34 33 31 30 29 27 26 24 22 20 19 17
6 4 7 8 3 3 6 5 6 9 9 4 7 8 7 8 10 9 2 8 8 9 12 13 14 14 11 9 8 7 5 4 8 9 8 8 8 8 9 10 10 10 11 12 15 17 18 20 22 22 24 27 29 31 32 34 34 33 33 32 32 32 32 33 34 35 37 37 37 37 36 35 35 34 34 33 31 30 29 27 26 24 21 19 18 16
6 4 6 8 6 5 7 6 6 6 5 4 8 8 7 10 12 9 3 8 6 8 10 12 13 12 11 10 8 8 8 9 8 7 5 4 4 4 6 8 8 9 11 11 13 15 18 21 22 24 27 30 33 33 34 35 35 33 32 31 32 32 33 34 35 36 36 36 36 36 35 34 34 33 33 32 31 29 28 27 26 24 22 19 17 15
4 3 4 6 6 6 7 7 5 4 5 6 6 6 9 10 8 5 8 5 4 7 8 11 14 14 12 11 9 8 10 8 4 3 3 1 2 2 2 3 4 7 9 11 12 15 19 23 25 28 30 31 32 33 35 36 34 32 31 31 32 34 34 35 35 35 36 36 36 35 34 34 33 32 32 31 31 30 28 26 25 23 21 19 17 15
5 3 2 4 6 4 4 4 4 6 6 5 4 3 6 6 4 8 7 2 4 7 7 9 11 10 8 9 9 9 7 2 1 4 3 1 3 3 2 2 2 3 5 7 11 15 19 21 21 23 24 26 31 34 37 37 35 32 32 33 34 35 35 35 36 36 36 36 35 35 34 33 32 32 32 31 30 30 27 25 23 22 20 19 17 16
7 6 4 5 5 3 3 4 4 7 5 10 11 3 3 5 7 7 2 3 2 6 6 7 7 6 7 7 9 10 6 2 3 5 3 3 3 2 1 0 3 4 5 6 9 14 17 17 17 18 20 24 29 33 36 37 34 32 32 32 33 34 34 35 36 36 36 35 35 34 33 33 32 32 32 31 30 29 27 25 23 21 20 19 18 16
6 8 6 6 4 4 6 8 7 4 7 12 12 8 9 8 5 4 5 3 3 3 5 5 6 6 8 8 8 8 6 4 4 5 4 4 4 3 2 2 3 4 5 6 9 13 15 16 16 16 18 22 27 31 34 35 33 31 30 30 31 33 34 35 35 35 35 34 34 33 33 32 32 31 31 30 29 27 26 25 23 22 20 18 17 16
9 8 5 5 5 5 6 9 6 3 4 6 4 4 8 6 2 3 6 4 2 4 5 4 5 7 7 7 6 6 6 6 6 6 5 5 4 4 3 3 4 5 6 6 9 12 14 15 16 17 17 20 25 29 31 33 32 31 30 30 31 34 35 35 35 35 35 34 34 34 33 32 31 30 30 29 28 27 26 25 24 22 21 19 17 16
4 3 4 4 3 3 5 5 4 2 2 6 3 2 4 4 1 3 5 3 3 6 5 3 4 6 7 7 6 6 7 8 7 7 6 4 3 4 4 4 5 7 8 9 11 12 13 14 16 18 18 19 23 27 29 31 31 31 30 31 32 34 36 36 36 36 35 35 35 34 33 32 31 30 29 28 27 26 25 25 24 22 21 19 18 16
2 3 4 4 4 3 5 4 6 4 6 8 4 4 3 3 2 3 4 3 4 5 4 4 3 4 6 7 7 7 7 7 8 7 6 4 4 4 4 4 5 7 9 11 13 15 16 17 17 18 20 21 23 26 28 28 28 29 30 31 33 35 36 37 37 36 35 35 34 33 33 32 32 31 30 29 27 25 24 23 22 22 21 20 19 17
2 5 5 4 6 6 4 3 2 0 2 4 3 3 4 5 5 3 2 2 2 3 2 1 2 4 5 5 5 5 5 6 7 7 5 4 4 4 4 5 7 8 9 12 14 16 17 18 18 19 20 21 23 25 26 27 27 28 30 32 34 35 36 36 36 36 35 35 34 34 33 32 32 32 31 29 27 26 24 23 22 21 20 18 17 15
5 7 6 5 5 2 2 1 2 3 3 3 6 8 7 5 5 4 2 3 4 4 4 3 2 3 5 4 4 4 4 5 5 5 5 5 4 4 5 6 8 9 10 12 14 15 16 17 17 18 19 20 22 24 25 26 26 27 30 32 35 36 37 36 35 34 34 34 34 34 33 32 32 31 31 29 27 25 23 21 21 20 18 16 14 12
7 6 4 4 4 5 5 6 7 5 2 7 11 11 8 5 6 6 4 5 4 4 5 4 4 3 3 2 3 5 5 5 4 4 5 5 4 5 7 8 9 9 10 11 13 13 13 13 14 16 17 17 20 23 24 25 25 26 28 32 34 36 37 36 34 33 33 34 34 33 33 32 32 31 30 29 28 26 22 20 18 17 16 15 13 11
7 9 9 8 9 10 10 12 12 7 4 7 10 9 7 6 7 7 7 6 5 4 4 5 4 3 3 3 1 4 4 4 5 6 5 4 5 7 9 10 11 11 11 12 13 12 11 11 12 15 16 18 20 22 23 23 24 25 28 31 34 35 36 36 35 33 33 33 34 34 34 34 33 32 30 29 28 27 25 22 18 14 13 13 12 11
Wind_Direction
150 145 185 200 199 195 188 188 179 124 91 171 197 272 263 259 263 246 242 274 181 166 220 209 217 238 241 248 242 163 156 216 244 235 228 224 218 222 222 226 226 225 234 237 232 228 224 221 220 219 219 219 220 220 221 221 222 222 222 221 221 221 221 221 221 222 222 223 224 224 226 228 229 230 234 239 240 242 245 250 252 252 255 261 261 262
145 193 209 205 187 178 176 165 162 190 247 274 264 270 281 256 260 264 239 294 9 175 232 212 218 245 247 249 236 139 162 213 225 221 223 220 218 222 223 228 229 233 244 240 232 227 223 221 219 218 217 217 218 219 220 221 222 222 222 222 223 222 221 222 222 222 223 225 226 226 227 229 230 232 233 237 240 241 244 251 256 255 254 259 261 262
193 214 208 162 130 142 163 160 161 188 225 266 275 262 271 259 271 280 267 335 21 188 246 208 208 246 253 251 222 173 198 225 223 219 227 221 220 224 221 226 229 236 243 232 229 223 218 219 217 215 216 216 218 219 220 222 223 222 222 223 223 222 222 223 224 224 226 228 229 231 233 233 234 235 236 239 243 244 245 249 251 253 254 258 263 264
191 224 150 129 141 148 159 165 160 176 216 237 253 245 254 253 240 265 263 325 52 115 220 174 203 253 259 262 245 214 218 239 232 220 235 229 225 230 228 233 231 229 233 229 228 220 216 218 214 213 214 215 216 218 219 220 221 222 222 222 222 221 223 224 225 226 228 229 230 231 234 236 236 237 239 242 245 245 246 248 247 248 251 256 264 268
162 255 127 125 152 160 161 166 165 179 211 227 237 235 244 244 226 244 269 273 69 350 113 133 253 275 250 251 257 235 218 245 241 217 237 238 229 239 255 257 239 228 230 227 224 216 212 214 213 213 213 213 214 216 218 218 220 221 222 222 221 221 223 224 226 227 227 226 225 225 226 229 232 235 238 241 243 243 244 247 247 248 249 254 263 268
151 189 135 124 151 167 166 174 177 180 193 229 238 231 234 242 238 240 257 187 122 256 239 139 227 269 269 251 247 240 220 239 231 209 234 241 231 230 244 247 238 232 231 228 227 217 213 216 214 214 213 212 213 216 218 219 220 221 222 223 222 222 223 225 227 227 225 223 221 220 219 220 224 229 235 237 240 244 246 248 251 251 251 255 259 260
157 162 147 146 160 163 171 190 186 174 183 223 218 209 221 232 236 230 219 190 176 235 261 152 200 255 305 265 236 234 229 237 229 215 237 244 236 225 229 238 234 232 232 228 231 221 216 219 215 214 213 212 214 217 218 220 221 222 223 223 223 224 224 225 226 225 223 222 221 221 221 221 223 228 234 239 244 249 251 253 255 255 255 254 249 249
140 147 163 163 159 165 187 201 186 173 182 214 166 175 216 221 224 216 191 210 225 247 283 185 170 235 272 253 252 245 225 245 248 240 248 247 239 234 233 234 228 227 226 219 224 220 214 216 214 215 215 214 217 218 218 218 219 221 222 224 224 225 226 226 225 225 224 222 222 222 222 224 227 233 238 242 245 249 252 255 256 255 253 251 247 251
139 160 176 167 167 189 198 180 167 173 193 256 306 173 234 231 224 210 190 222 252 237 250 234 158 209 253 264 306 359 205 242 250 240 244 242 236 235 235 235 228 227 225 216 220 219 215 216 216 218 218 217 218 218 217 218 219 221 222 223 224 225 226 227 226 226 225 225 224 223 223 225 229 235 240 242 243 245 250 251 248 243 239 237 236 236
179 182 170 164 186 201 175 141 162 182 203 279 318 105 9 350 313 178 190 200 139 215 235 219 182 207 262 266 267 249 214 234 243 238 238 238 237 236 235 235 230 227 227 223 224 223 220 221 222 221 220 219 218 217 218 219 218 219 220 221 222 224 226 226 226 226 225 225 225 224 224 225 228 231 234 236 237 239 241 237 230 224 217 217 220 223
221 157 157 169 197 178 140 150 176 193 205 347 36 72 32 9 31 38 114 127 142 234 238 217 189 198 251 261 218 213 214 207 218 240 245 245 245 241 238 236 230 223 223 223 226 229 226 225 224 220 219 219 217 216 216 217 217 217 218 219 221 224 225 226 226 226 226 225 224 224 225 227 228 228 228 228 228 228 224 216 209 204 199 201 214 219
87 123 167 168 147 115 120 172 187 204 245 348 29 103 52 354 18 17 352 151 209 235 252 234 177 185 234 252 222 227 237 215 209 226 239 245 251 249 246 240 229 219 217 215 218 220 213 207 207 207 211 214 212 212 213 214 216 216 217 219 220 223 224 225 225 225 225 224 224 225 226 228 229 228 227 225 223 219 212 204 197 193 191 194 204 208
131 212 205 138 138 139 141 172 183 197 209 187 200 186 174 190 161 220 227 205 226 244 283 263 159 198 238 245 247 250 254 239 218 219 234 243 253 257 254 244 230 217 212 208 202 197 188 184 189 194 200 203 204 207 210 211 213 215 217 218 220 222 223 223 224 223 223 223 224 225 225 227 229 228 228 226 222 216 208 203 197 194 194 194 198 202
171 272 216 160 170 167 165 175 181 196 200 189 199 200 188 171 169 202 214 225 248 260 306 294 188 249 273 261 247 240 241 237 221 228 241 244 252 262 267 255 233 221 213 203 187 181 181 182 184 188 193 196 199 202 204 207 209 211 214 217 219 221 221 221 221 221 221 222 223 224 224 226 227 227 226 223 217 210 203 202 201 200 201 201 201 205
169 232 200 177 170 170 183 195 178 161 175 194 199 193 203 195 176 197 208 212 231 256 299 294 192 201 211 248 242 231 253 269 236 246 254 249 255 265 273 254 217 214 212 199 187 185 190 185 182 185 189 193 196 197 199 202 205 208 212 215 217 219 217 216 216 216 217 218 219 220 220 222 223 224 222 217 210 204 200 199 201 203 205 206 207 209
184 243 212 164 150 165 176 192 151 136 161 195 171 177 224 212 157 156 193 185 177 164 263 236 222 215 213 268 280 268 293 292 263 272 270 255 268 272 254 236 206 208 206 197 199 198 202 194 188 191 192 194 195 195 198 200 201 206 209 212 215 216 215 213 211 211 211 212 212 214 215 216 217 216 213 206 199 196 196 198 201 203 204 206 206 205
186 260 1 68 91 176 174 160 159 183 181 153 173 205 227 159 117 112 222 160 102 191 240 195 237 290 298 281 306 353 314 289 275 278 268 259 278 271 239 227 207 209 206 204 207 205 202 191 192 199 199 202 202 201 203 202 203 205 206 208 208 207 205 204 204 203 202 202 202 203 205 206 205 202 199 195 191 190 193 195 200 203 201 200 200 200
156 88 285 153 166 212 157 131 148 237 171 142 198 210 154 89 124 117 207 349 62 218 267 197 219 268 243 251 319 357 285 273 264 256 267 273 259 240 236 223 213 217 213 219 216 206 200 185 188 195 197 204 209 211 212 209 208 207 206 206 202 196 193 191 191 191 191 192 192 191 192 192 191 190 189 190 190 191 194 197 201 203 198 194 195 200
148 101 329 193 177 191 60 111 159 251 213 168 205 185 124 206 231 187 182 207 184 222 287 306 254 253 206 220 287 247 228 247 248 235 246 255 234 226 236 229 227 226 212 212 204 195 195 185 184 186 188 197 206 215 218 214 210 205 202 200 195 191 186 182 182 182 182 184 184 183 183 184 184 185 186 188 189 192 197 202 200 194 192 192 193 193
157 129 302 273 183 155 96 169 186 197 203 154 190 179 165 204 212 204 191 168 186 214 265 290 283 265 227 218 218 226 229 228 224 215 225 235 226 216 219 216 216 211 201 201 196 197 197 187 184 183 188 194 200 207 208 205 202 196 191 189 186 183 179 178 178 178 177 177 178 178 177 179 181 183 185 188 191 196 196 194 190 186 187 187 181 175
164 139 164 273 11 159 184 203 184 177 177 182 190 188 195 208 216 254 224 125 141 180 197 214 253 262 248 214 206 229 238 221 206 208 224 233 226 217 214 210 207 201 201 201 192 196 197 190 184 180 184 188 190 192 191 192 192 187 183 182 180 177 175 175 175 175 175 175 176 178 177 178 181 182 186 188 191 191 185 181 181 181 180 174 166 162
171 148 147 152 177 188 215 231 175 180 177 178 200 199 192 195 196 238 245 207 115 161 177 170 232 268 258 210 211 229 239 218 208 213 230 240 229 221 217 210 204 196 199 199 192 194 191 186 180 173 176 177 178 181 182 185 186 183 181 180 178 178 177 177 176 176 177 177 179 182 181 181 182 183 185 184 182 179 175 175 175 174 170 162 154 153
141 116 125 160 199 202 234 247 152 164 151 159 216 213 180 177 183 210 230 234 193 218 137 130 208 270 263 229 227 247 270 262 240 226 237 247 234 223 217 207 202 200 201 194 188 191 187 182 176 169 169 169 170 174 177 181 183 183 184 182 181 181 180 181 181 181 181 181 181 182 181 181 180 180 180 176 174 173 171 170 167 164 162 155 149 149
135 115 113 89 315 315 309 312 82 88 115 193 236 205 176 191 183 196 208 190 201 205 128 158 250 269 273 268 243 253 272 276 267 244 237 249 243 220 211 200 195 196 194 186 182 180 173 171 169 167 166 165 167 170 174 179 183 185 187 188 187 186 185 185 185 185 185 183 181 179 178 177 175 174 174 172 171 170 167 164 159 157 156 152 149 149
179 161 130 108 74 356 294 271 240 214 190 203 231 214 195 172 111 120 178 151 229 225 175 195 241 251 268 309 311 277 287 282 268 247 230 237 234 216 206 193 191 187 177 179 179 169 165 167 171 173 172 170 171 173 174 177 181 183 185 187 188 187 185 184 183 182 181 179 176 174 174 173 172 173 173 171 169 165 161 157 154 154 155 152 151 149
185 178 153 156 175 191 200 216 215 194 173 201 200 190 204 181 161 178 184 188 237 240 177 189 229 256 283 309 305 293 300 281 275 279 254 234 218 202 194 186 187 184 181 184 182 177 176 176 178 179 178 179 179 179 178 177 177 177 177 179 182 181 178 177 177 176 175 174 172 171 171 171 172 173 171 168 164 160 157 155 154 154 154 153 152 149
149 183 189 188 193 190 186 200 156 130 155 210 204 185 190 194 188 172 156 215 217 187 208 218 206 243 279 278 270 281 282 263 271 285 265 238 211 193 187 182 184 188 189 186 181 180 178 180 186 186 186 187 186 184 183 181 178 176 174 173 174 176 175 174 175 175 174 174 173 171 171 171 171 170 167 163 159 157 155 154 155 155 154 154 153 150
132 199 199 190 199 186 152 151 149 148 183 207 199 197 201 188 178 184 213 220 174 150 246 239 180 204 253 258 257 263 254 247 262 262 246 225 195 181 165 163 181 193 192 187 187 187 184 187 191 191 192 191 189 188 185 183 181 180 178 177 176 177 177 176 177 177 176 175 173 171 170 170 168 166 163 159 157 156 155 155 156 155 154 154 154 152
160 206 191 174 198 201 166 165 167 169 192 201 196 205 209 196 191 206 225 219 178 202 241 223 182 207 229 246 254 254 239 237 263 268 247 180 160 163 161 172 189 198 198 197 198 194 190 191 191 194 196 194 190 187 184 182 181 180 181 181 180 180 180 180 179 177 176 175 173 171 169 167 165 163 160 158 157 157 157 157 156 156 155 155 155 154
171 195 172 161 184 208 201 188 183 184 192 197 202 206 205 207 210 216 229 226 212 231 244 230 222 231 222 229 249 264 276 248 255 271 159 156 165 174 181 192 202 206 205 203 201 196 195 195 193 195 195 194 192 187 183 182 182 182 182 181 181 181 181 181 180 177 176 174 172 170 168 166 164 161 160 159 158 158 158 157 157 157 156 156 156 155
181 185 154 140 161 218 223 183 203 211 203 203 212 211 208 210 214 220 229 230 229 241 248 252 257 254 241 238 256 272 293 273 261 227 182 182 182 180 193 209 212 215 214 208 202 197 196 195 194 195 195 196 195 189 185 185 184 184 184 183 183 183 181 181 180 177 175 174 171 169 167 165 163 161 161 160 159 159 159 158 158 158 158 157 156 154
128 153 104 116 161 228 211 162 197 206 230 248 236 223 214 211 214 220 221 218 224 234 236 242 254 255 243 252 261 255 246 250 260 242 204 197 190 186 201 214 216 219 215 207 199 195 197 197 196 197 198 197 194 190 189 187 185 186 187 186 185 183 180 180 179 177 175 173 170 168 166 165 163 162 162 161 161 160 160 160 159 159 159 158 156 155
133 137 121 139 175 230 182 153 153 107 34 262 241 216 210 216 219 224 226 223 222 221 219 232 241 224 190 216 235 238 221 221 243 235 199 201 203 201 212 217 219 222 213 203 201 200 202 203 201 200 199 196 194 193 193 190 188 189 189 186 184 181 179 179 178 177 175 172 170 168 167 166 165 164 163 163 162 162 161 161 160 160 161 158 157 157
144 142 157 172 170 203 180 126 109 118 229 252 225 179 193 206 209 216 226 226 223 220 224 239 240 179 188 216 225 225 209 210 234 231 197 194 191 202 223 226 227 226 213 204 206 205 206 206 205 203 201 200 198 196 194 193 192 191 188 185 183 181 180 179 178 177 175 172 171 170 168 168 167 165 164 163 163 163 162 162 161 161 161 160 158 159
158 156 166 168 149 168 147 111 133 209 230 251 351 167 193 202 204 212 223 226 225 225 229 241 241 204 207 223 226 225 219 225 257 258 216 205 191 197 218 228 229 223 212 210 211 211 211 205 201 202 202 203 201 196 194 194 192 190 187 185 184 182 181 180 179 178 176 174 172 171 170 170 169 167 165 164 164 163 163 163 162 162 161 160 160 160
161 160 145 117 129 139 130 158 194 232 271 287 296 264 179 180 183 208 237 242 237 228 226 233 234 225 224 231 240 259 239 252 300 276 232 220 209 205 214 223 224 215 209 211 208 206 206 203 201 202 202 200 197 194 193 192 190 187 185 184 183 181 180 180 179 178 177 176 175 174 173 172 170 168 166 165 165 164 163 164 163 163 162 161 161 161
152 147 134 149 176 129 143 209 236 307 304 265 235 204 156 149 154 176 226 248 238 223 218 224 231 236 234 220 199 185 203 354 326 280 244 224 217 219 221 223 223 217 216 219 216 214 212 208 206 204 200 195 193 193 192 189 187 185 182 181 182 181 181 181 180 180 179 178 177 175 174 174 172 170 168 167 166 165 165 165 164 163 163 163 162 160
155 154 158 178 201 106 127 221 266 269 262 241 194 185 185 174 166 166 199 245 236 216 210 210 218 229 227 205 179 156 113 53 275 265 252 228 217 222 229 236 237 231 226 222 218 218 214 209 207 204 198 193 192 193 191 187 185 182 180 180 182 181 181 182 183 182 181 180 179 177 176 176 175 172 170 168 168 167 166 166 165 164 165 166 164 160
122 120 148 165 179 139 158 198 214 229 248 211 169 187 185 161 135 118 182 260 235 202 199 201 210 220 214 200 181 150 139 210 241 249 245 229 223 219 221 237 243 235 230 223 215 212 207 201 199 196 193 192 191 191 190 187 184 181 180 181 181 181 183 185 185 185 183 181 179 178 177 177 176 175 172 170 170 170 168 167 166 164 164 166 164 160
118 113 150 170 184 175 180 208 224 235 255 217 189 184 167 148 121 106 252 261 221 193 191 185 198 212 204 191 176 163 185 214 232 243 236 231 250 227 214 235 243 230 225 220 213 208 199 191 187 185 189 193 193 191 189 185 182 182 182 181 181 184 186 187 187 186 184 182 180 179 178 178 177 176 174 172 171 171 170 169 167 165 164 164 163 160
121 135 168 180 181 174 185 216 253 264 240 222 205 174 155 135 116 163 225 228 174 192 188 173 190 206 200 186 178 191 208 210 221 264 276 281 271 254 257 267 240 221 220 213 203 197 189 187 189 191 193 195 192 188 185 183 181 182 182 181 184 188 190 189 188 186 184 182 180 179 178 178 177 177 175 174 173 171 170 169 168 167 165 164 162 160
156 154 176 173 165 163 183 207 264 272 229 175 147 175 163 137 171 218 221 148 149 181 184 189 200 201 188 183 192 209 215 188 215 255 271 268 235 243 321 357 137 165 192 193 190 188 183 185 190 192 192 192 189 187 185 183 181 182 183 185 189 191 190 188 187 186 183 182 180 179 178 177 177 177 176 176 175 172 169 167 167 168 167 164 163 161
164 157 183 188 169 146 158 184 241 263 214 136 119 133 223 197 207 214 152 72 173 173 173 204 210 184 173 187 206 217 210 169 227 247 262 275 258 250 280 138 134 144 155 164 179 184 181 180 183 185 187 188 188 187 184 183 183 183 184 188 190 190 188 187 186 184 182 180 179 178 177 177 177 178 178 176 176 174 170 167 167 168 168 166 164 162
174 174 186 199 182 148 172 202 216 209 171 148 140 172 211 205 192 167 139 147 225 190 174 208 217 196 189 190 198 206 195 182 218 237 247 251 242 224 210 162 135 147 155 161 176 181 179 176 175 177 181 184 185 186 185 185 184 183 186 189 189 187 186 185 183 181 179 178 177 177 177 178 178 180 179 177 176 175 172 170 169 168 168 168 167 164
207 196 174 185 193 178 197 218 217 158 165 176 162 195 207 192 134 137 145 139 203 201 182 203 216 202 194 184 174 180 191 200 208 211 216 224 215 196 183 155 144 151 151 152 163 172 175 174 169 168 173 180 185 187 187 188 187 185 186 188 187 186 184 182 181 179 178 178 178 178 178 178 179 179 179 177 178 179 177 174 173 171 168 168 169 166
242 182 132 150 190 249 265 228 171 110 209 213 233 277 219 193 154 145 136 133 219 204 184 203 210 191 185 177 164 182 204 201 196 206 217 218 198 173 155 140 139 145 148 149 155 164 169 168 166 167 169 176 184 188 189 191 191 189 187 187 186 186 184 182 180 179 178 178 178 178 178 178 178 178 179 179 180 181 181 179 177 174 171 170 169 167
295 161 151 151 155 196 247 200 151 160 207 206 230 299 274 227 219 169 155 196 223 202 198 224 210 164 176 180 179 201 210 188 183 198 203 193 189 176 154 146 149 153 160 162 161 165 167 165 166 170 171 176 184 188 189 191 193 193 190 187 185 185 184 182 180 179 178 178 178 178 179 180 180 180 180 180 181 181 181 181 181 179 176 175 173 169
198 161 169 181 170 178 214 209 163 256 240 212 229 268 250 225 214 195 181 190 158 127 146 220 149 148 171 184 184 194 195 185 189 193 185 184 188 173 161 164 163 162 169 171 169 172 173 171 173 175 177 179 183 186 189 190 192 195 193 190 188 186 184 183 182 180 179 179 179 180 181 182 183 182 182 182 182 182 182 182 182 183 182 181 182 180
133 157 176 167 162 191 292 237 128 53 3 272 241 236 237 218 175 152 113 99 106 104 100 76 72 146 165 170 166 163 180 199 197 176 171 180 175 167 174 175 171 171 173 174 176 179 180 180 181 180 180 182 183 185 188 190 192 195 195 192 190 187 184 182 182 181 181 181 181 182 183 184 184 185 184 183 182 181 182 183 184 184 183 182 183 186
138 168 168 126 165 217 216 183 168 145 179 229 225 219 218 188 146 142 135 125 133 144 132 101 57 58 95 132 153 156 176 200 187 159 170 182 177 177 177 169 167 173 175 175 179 183 187 189 188 184 182 184 185 185 187 191 192 194 194 193 190 188 186 183 182 182 182 182 183 184 184 185 186 186 186 184 182 179 176 177 181 184 184 181 179 182
176 177 165 163 199 216 196 181 184 177 185 214 210 195 184 162 147 155 162 160 165 170 145 122 105 85 42 16 64 155 171 189 179 164 164 172 177 179 176 172 173 176 178 180 180 181 188 193 192 190 189 188 188 189 189 192 193 192 193 194 192 191 189 186 183 182 183 185 186 187 187 188 187 186 185 185 184 181 175 171 172 177 181 177 174 178